TimeCST,TemperatureF,Dew PointF,Humidity,Sea Level PressureIn,VisibilityMPH,Wind Direction,Wind SpeedMPH,Gust SpeedMPH,PrecipitationIn,Events,Conditions,WindDirDegrees,DateUTC
12:08 AM,41.0,7.2,25,-9999,-9999.0,West,8.1,-,N/A,,Unknown,280,2012-11-14 06:08:00
12:28 AM,39.9,7.2,26,-9999,-9999.0,WNW,6.9,-,N/A,,Unknown,290,2012-11-14 06:28:00
12:48 AM,39.0,6.1,26,-9999,-9999.0,West,8.1,-,N/A,,Unknown,280,2012-11-14 06:48:00
1:08 AM,36.0,5.0,27,-9999,-9999.0,West,9.2,-,N/A,,Unknown,260,2012-11-14 07:08:00
1:28 AM,37.0,6.1,28,-9999,-9999.0,West,12.7,-,N/A,,Unknown,270,2012-11-14 07:28:00
1:48 AM,39.9,7.2,26,-9999,-9999.0,WNW,9.2,-,N/A,,Unknown,290,2012-11-14 07:48:00
2:08 AM,37.9,7.2,28,-9999,-9999.0,West,10.4,-,N/A,,Unknown,280,2012-11-14 08:08:00
2:28 AM,37.0,6.1,28,-9999,-9999.0,WNW,10.4,-,N/A,,Unknown,290,2012-11-14 08:28:00
2:48 AM,35.1,6.1,30,-9999,-9999.0,West,10.4,-,N/A,,Unknown,280,2012-11-14 08:48:00
3:08 AM,34.0,6.1,31,-9999,-9999.0,West,10.4,-,N/A,,Unknown,270,2012-11-14 09:08:00
3:28 AM,32.0,6.1,34,-9999,-9999.0,West,9.2,-,N/A,,Unknown,270,2012-11-14 09:28:00
3:48 AM,33.1,7.2,34,-9999,-9999.0,West,8.1,-,N/A,,Unknown,270,2012-11-14 09:48:00
4:08 AM,33.1,7.2,34,-9999,-9999.0,West,6.9,-,N/A,,Unknown,270,2012-11-14 10:08:00
4:28 AM,34.0,6.1,31,-9999,-9999.0,West,9.2,-,N/A,,Unknown,270,2012-11-14 10:28:00
4:48 AM,35.1,7.2,31,-9999,-9999.0,West,9.2,-,N/A,,Unknown,280,2012-11-14 10:48:00
5:08 AM,35.1,7.2,31,-9999,-9999.0,West,6.9,-,N/A,,Unknown,280,2012-11-14 11:08:00
5:28 AM,33.1,6.1,32,-9999,-9999.0,West,6.9,-,N/A,,Unknown,270,2012-11-14 11:28:00
5:48 AM,33.1,6.1,32,-9999,-9999.0,West,6.9,-,N/A,,Unknown,270,2012-11-14 11:48:00
6:08 AM,33.1,6.1,32,-9999,-9999.0,West,6.9,-,N/A,,Unknown,270,2012-11-14 12:08:00
6:28 AM,33.1,7.2,34,-9999,-9999.0,West,6.9,-,N/A,,Unknown,270,2012-11-14 12:28:00
6:48 AM,32.0,6.1,34,-9999,-9999.0,West,6.9,-,N/A,,Unknown,270,2012-11-14 12:48:00
7:08 AM,32.0,7.2,35,-9999,-9999.0,West,4.6,-,N/A,,Unknown,280,2012-11-14 13:08:00
7:28 AM,32.0,6.1,34,-9999,-9999.0,West,6.9,-,N/A,,Unknown,270,2012-11-14 13:28:00
7:48 AM,32.0,7.2,35,-9999,-9999.0,West,6.9,-,N/A,,Unknown,270,2012-11-14 13:48:00
8:08 AM,34.0,8.1,34,-9999,-9999.0,West,6.9,-,N/A,,Unknown,270,2012-11-14 14:08:00
8:28 AM,36.0,10.0,34,-9999,-9999.0,West,4.6,-,N/A,,Unknown,270,2012-11-14 14:28:00
8:48 AM,37.9,12.0,35,-9999,-9999.0,West,4.6,-,N/A,,Unknown,280,2012-11-14 14:48:00
9:08 AM,42.1,14.0,32,-9999,-9999.0,WNW,3.5,-,N/A,,Unknown,290,2012-11-14 15:08:00
9:28 AM,44.1,15.1,31,-9999,-9999.0,WNW,4.6,-,N/A,,Unknown,290,2012-11-14 15:28:00
9:48 AM,46.0,15.1,29,-9999,-9999.0,WNW,3.5,-,N/A,,Unknown,290,2012-11-14 15:48:00
10:08 AM,48.0,17.1,29,-9999,-9999.0,NW,3.5,-,N/A,,Unknown,310,2012-11-14 16:08:00
10:28 AM,48.9,17.1,28,-9999,-9999.0,NNW,1.2,-,N/A,,Unknown,330,2012-11-14 16:28:00
10:48 AM,50.0,17.1,27,-9999,-9999.0,West,1.2,-,N/A,,Unknown,260,2012-11-14 16:48:00
11:08 AM,52.0,18.1,26,-9999,-9999.0,SW,2.3,-,N/A,,Unknown,230,2012-11-14 17:08:00
11:28 AM,54.0,20.1,27,-9999,-9999.0,South,2.3,-,N/A,,Unknown,190,2012-11-14 17:28:00
11:48 AM,55.0,19.0,24,-9999,-9999.0,South,5.8,-,N/A,,Unknown,190,2012-11-14 17:48:00
12:08 PM,57.0,20.1,24,-9999,-9999.0,South,6.9,-,N/A,,Unknown,190,2012-11-14 18:08:00
12:28 PM,57.9,20.1,23,-9999,-9999.0,South,8.1,-,N/A,,Unknown,190,2012-11-14 18:28:00
12:48 PM,59.0,21.0,23,-9999,-9999.0,South,5.8,-,N/A,,Unknown,170,2012-11-14 18:48:00
1:08 PM,60.1,20.1,21,-9999,-9999.0,South,10.4,-,N/A,,Unknown,190,2012-11-14 19:08:00
1:28 PM,61.0,21.0,21,-9999,-9999.0,South,12.7,-,N/A,,Unknown,170,2012-11-14 19:28:00
1:48 PM,62.1,20.1,20,-9999,-9999.0,South,16.1,-,N/A,,Unknown,180,2012-11-14 19:48:00
2:08 PM,62.1,19.0,19,-9999,-9999.0,South,12.7,-,N/A,,Unknown,190,2012-11-14 20:08:00
2:28 PM,62.1,20.1,20,-9999,-9999.0,South,15.0,-,N/A,,Unknown,180,2012-11-14 20:28:00
2:48 PM,62.1,20.1,20,-9999,-9999.0,South,12.7,-,N/A,,Unknown,180,2012-11-14 20:48:00
3:08 PM,63.0,20.1,19,-9999,-9999.0,South,12.7,-,N/A,,Unknown,180,2012-11-14 21:08:00
3:28 PM,64.0,18.1,17,-9999,-9999.0,South,18.4,-,N/A,,Unknown,190,2012-11-14 21:28:00
3:48 PM,64.0,17.1,16,-9999,-9999.0,South,15.0,-,N/A,,Unknown,190,2012-11-14 21:48:00
4:08 PM,63.0,16.2,16,-9999,-9999.0,South,10.4,-,N/A,,Unknown,190,2012-11-14 22:08:00
4:28 PM,61.0,15.1,17,-9999,-9999.0,South,12.7,-,N/A,,Unknown,190,2012-11-14 22:28:00
4:48 PM,61.0,14.0,16,-9999,-9999.0,South,13.8,-,N/A,,Unknown,180,2012-11-14 22:48:00
5:08 PM,59.0,14.0,17,-9999,-9999.0,South,12.7,-,N/A,,Unknown,170,2012-11-14 23:08:00
5:28 PM,55.9,15.1,20,-9999,-9999.0,South,11.5,-,N/A,,Unknown,170,2012-11-14 23:28:00
5:48 PM,52.0,14.0,22,-9999,-9999.0,South,10.4,-,N/A,,Unknown,170,2012-11-14 23:48:00
6:08 PM,46.9,13.1,26,-9999,-9999.0,SSE,9.2,-,N/A,,Unknown,160,2012-11-15 00:08:00
6:28 PM,42.1,11.1,28,-9999,-9999.0,SSE,9.2,-,N/A,,Unknown,150,2012-11-15 00:28:00
6:48 PM,39.9,12.0,32,-9999,-9999.0,SSE,10.4,-,N/A,,Unknown,150,2012-11-15 00:48:00
7:08 PM,39.0,11.1,32,-9999,-9999.0,SSE,10.4,-,N/A,,Unknown,150,2012-11-15 01:08:00
7:28 PM,42.1,13.1,31,-9999,-9999.0,SSE,11.5,-,N/A,,Unknown,150,2012-11-15 01:28:00
7:48 PM,42.1,13.1,31,-9999,-9999.0,SSE,10.4,-,N/A,,Unknown,160,2012-11-15 01:48:00
8:08 PM,41.0,13.1,32,-9999,-9999.0,SSE,12.7,-,N/A,,Unknown,150,2012-11-15 02:08:00
8:28 PM,37.9,12.0,35,-9999,-9999.0,SSE,9.2,-,N/A,,Unknown,150,2012-11-15 02:28:00
8:48 PM,37.0,12.0,36,-9999,-9999.0,SSE,8.1,-,N/A,,Unknown,160,2012-11-15 02:48:00
9:08 PM,36.0,12.0,37,-9999,-9999.0,South,9.2,-,N/A,,Unknown,170,2012-11-15 03:08:00
9:28 PM,36.0,12.0,37,-9999,-9999.0,South,9.2,-,N/A,,Unknown,170,2012-11-15 03:28:00
9:48 PM,33.1,11.1,40,-9999,-9999.0,SSE,10.4,-,N/A,,Unknown,160,2012-11-15 03:48:00
10:08 PM,34.0,12.0,40,-9999,-9999.0,SSE,11.5,-,N/A,,Unknown,160,2012-11-15 04:08:00
10:28 PM,34.0,13.1,42,-9999,-9999.0,SSE,9.2,-,N/A,,Unknown,160,2012-11-15 04:28:00
10:48 PM,33.1,13.1,44,-9999,-9999.0,SSE,9.2,-,N/A,,Unknown,160,2012-11-15 04:48:00
11:08 PM,35.1,12.0,39,-9999,-9999.0,South,11.5,-,N/A,,Unknown,180,2012-11-15 05:08:00
11:28 PM,36.0,13.1,39,-9999,-9999.0,South,11.5,-,N/A,,Unknown,170,2012-11-15 05:28:00
11:48 PM,35.1,14.0,42,-9999,-9999.0,South,8.1,-,N/A,,Unknown,170,2012-11-15 05:48:00